Content
SEND FEEDBACK

Daily
Averages
Monthly
Summary
Canada

JONQUIERE, QUEBEC


Home > North America > Canada > Quebec
Elevation: 541 feet     Latitude: 48 31N     Longitude: 071 03W

WEATHER
 
SELECT A DAY
Number of Records: 138,066;   Date Range: 1/1/95 - 12/24/14
 
SHARE

PRINT THIS DATA

[ ← Previous Day ]
WEATHER ALMANAC - FEBRUARY 13, 2013
[ Next Day → ]
[ °C ]   °F
Weather ElementAverageHighLow
Temperature20.2 °F23.5 °F (4:00 pm)14 °F (11:00 pm)
Dewpoint15.2 °F20 °F (1:00 am)12.2 °F (11:00 pm)
Humidity80.1 %93 % (11:00 pm)60 % (1:00 pm)
Barometer29.78 in29.81 in (9:00 am)29.73 in (1:00 am)
Wind Speed7.9 mph13.8 mph (2:00 am)
Wind Gust19.6 mph (1:00 am)
Weather ElementAverage
Wind DirectionSW (228.1 °)

Weather ElementTotal
Precipitation---
Heating Degree Days46.3 (Base 65)
Averaged from 27 records on February 13, 2013
WEATHER CONDITIONS BREAKOUT
WIND DIRECTION BREAKOUT
WEATHER BY HOUR - FEBRUARY 13, 2013
[ °C ]   °F
Local TimeTemperatureDewpointHumidityBarometerVisibilityWind DirectionWind SpeedGust SpeedPrecipitationEventsConditions
1:00 AM23.0 °F20.0 °F83 %29.73 inWNW (300°)12.7 mph
1:00 AM22.8 °F19.9 °F89 %29.73 inWNW (300°)12.7 mph19.6 mph
2:00 AM21.6 °F18.3 °F87 %29.73 inWNW (300°)13.8 mph
3:00 AM20.7 °F17.8 °F89 %29.73 inWNW (300°)11.5 mph
4:00 AM20.1 °F17.1 °F88 %29.75 inWNW (300°)12.7 mph19.6 mph
5:00 AM19.2 °F15.6 °F86 %29.76 inWNW (300°)11.5 mph
6:00 AM18.5 °F15.1 °F86 %29.77 inWNW (300°)10.4 mph
7:00 AM18.0 °F14.0 °F77 %29.79 inWNW (290°)11.5 mph
7:00 AM17.6 °F14.0 °F86 %29.79 inWNW (290°)11.5 mph
8:00 AM17.8 °F13.8 °F84 %29.80 inWNW (300°)9.2 mph
9:00 AM18.1 °F13.1 °F81 %29.81 inWest (270°)10.4 mph
10:00 AM19.6 °F14.0 °F79 %29.80 inWNW (300°)6.9 mph
11:00 AM20.1 °F12.9 °F74 %29.81 inWest (270°)10.4 mph
12:00 PM21.6 °F13.1 °F70 %29.80 inWest (270°)9.2 mph
1:00 PM21.0 °F13.0 °F60 %29.79 inNW (320°)9.2 mph
1:00 PM20.8 °F12.9 °F71 %29.79 inNW (320°)9.2 mph
2:00 PM23.0 °F15.1 °F72 %29.77 inNW (320°)3.5 mph
3:00 PM23.0 °F14.7 °F71 %29.77 inNE (50°)3.5 mph
4:00 PM23.5 °F15.4 °F71 %29.76 inESE (110°)1.2 mph
5:00 PM23.0 °F16.2 °F75 %29.78 inEast (80°)3.5 mph
6:00 PM22.3 °F16.0 °F77 %29.79 inENE (70°)3.5 mph
7:00 PM21.0 °F16.0 °F73 %29.79 inESE (120°)3.5 mph
7:00 PM20.7 °F16.0 °F82 %29.79 inESE (120°)3.5 mph
8:00 PM20.3 °F15.6 °F82 %29.79 inSSE (160°)6.9 mph
9:00 PM18.5 °F14.5 °F85 %29.79 inSSE (150°)6.9 mph
10:00 PM15.4 °F13.3 °F91 %29.79 inESE (120°)2.3 mph
11:00 PM14.0 °F12.2 °F93 %29.79 inSE (130°)3.5 mph
Hourly data recorded from CWJO, located miles away from Jonquiere, Quebec







STORIES FROM OUR PARTNERS